SUPERVIEW NEO-3 01

导读 | 星芒AI

SUPERVIEW NEO-3 01 是由中国航天科技集团研制的高分辨率商业遥感卫星,属于“超算星座”系列。该卫星具备高精度光学成像能力,主要用于提供高清晰度的地球观测数据,服务于城市规划、环境监测、农业评估等多个领域。其发射标志着中国在商业遥感卫星应用方面进一步发展,提升了国内遥感数据的获取能力和应用水平。

基本信息
目录编号:
59510
目录名称:
SUPERVIEW NEO-3 01
国际标识:
2024-072A
轨道中心:
EARTH
卫星名称:
SUPERVIEW NEO-3 01
卫星全名:
--
卫星状态:
在轨 (已飞行607 天)
发射日期:
2024-04-15 UTC
国别 :
中国 (CN)
星等 :
--
轨道信息
数据来源 国际轨道数据
星历时间: 2025-12-13T08:56:47+0800
8小时前
查看轨道信息
半长轴: 6872.259km
偏心率: 0.0002247
轨道倾角: 97.433°
近地点辐角 74.473°
升交点赤经 64.186°
平近点角 285.675°
近地点: 492.579km
远地点: 495.669km
周期: 94.495分钟
每日圈数: 15.238896
详细信息
使用方式:
暂无
2D轨道图
3D轨道图
轨道高度分析图
轨道倾角分析图
轨道综合分析图
查看轨道综合分析图